Miscellaneous Local Product
Issued by NWS Hastings, NE

Home | Current Version | Previous Version | Graphics & Text | Print | Product List | Glossary On
Versions: 1 2 3 4 5 6 7 8 9 10 11 12 13 14 15 16 17 18 19 20 21 22 23 24 25 26 27 28 29 30 31 32 33 34 35 36 37 38 39 40 41 42 43 44 45 46 47 48 49 50
813
AXUS43 KGID 250502
MISGRI

GID CWA HOURLY WEATHER ROUNDUP
NATIONAL WEATHER SERVICE HASTINGS NE
1200 AM CDT WED APR 25 2018

NOTE: "FAIR" INDICATES FEW OR NO CLOUDS BELOW 12,000 FEET WITH NO
SIGNIFICANT WEATHER AND/OR OBSTRUCTIONS TO VISIBILITY.

...SOUTH CENTRAL NEBRASKA...

CITY           SKY/WX    TMP DP  RH WIND       PRES   REMARKS
GRAND ISLAND   CLOUDY    43  40  89 N18       30.30R
KEARNEY        CLOUDY    41  38  89 N17       30.32F
HASTINGS       CLOUDY    42  41  96 N21G29    30.28F
ORD            CLOUDY    40  38  93 N14       30.32S WCI  32
YORK             N/A     45  45 100 N16G25    30.27R
AURORA         CLOUDY    43  41  94 N20G25    30.28R
LEXINGTON      CLOUDY    39  35  84 N16       30.35F WCI  31
HOLDREGE       CLOUDY    39  38  94 N15G21    30.32S WCI  31
HEBRON         CLOUDY    47  45  93 N13G20    30.24S

...NEBRASKA PANHANDLE...

CITY           SKY/WX    TMP DP  RH WIND       PRES   REMARKS
CHADRON        PTCLDY    29  27  92 SW8       30.43S WCI  21
ALLIANCE       CLOUDY    28  27  96 W6        30.41F WCI  22
SCOTTSBLUFF    PTCLDY    30  28  92 CALM      30.43F
SIDNEY         CLOUDY    33  29  85 N7        30.42F WCI  27

...WESTERN AND NORTH CENTRAL NEBRASKA...

CITY           SKY/WX    TMP DP  RH WIND       PRES   REMARKS
VALENTINE      CLOUDY    38  34  85 NW7       30.38S WCI  33
AINSWORTH      CLOUDY    37  36  97 NW7       30.37S WCI  31
ONEILL         CLOUDY    42  40  93 NW9       30.35S
BROKEN BOW     CLOUDY    38  34  85 N16       30.34S WCI  29
IMPERIAL       CLOUDY    37  32  82 NW14      30.41F WCI  28
NORTH PLATTE   LGT RAIN  37  33  85 N12       30.40S WCI  29
MCCOOK         CLOUDY    39  34  82 NW13      30.38R WCI  31

...EASTERN NEBRASKA...

CITY           SKY/WX    TMP DP  RH WIND       PRES   REMARKS
NORFOLK        LGT RAIN  42  41  96 N14       30.28F
SO SIOUX CITY  LGT RAIN  45  41  86 NW9       30.27S
TEKAMAH        LGT RAIN  46  44  93 N18       30.25R
COLUMBUS       LGT RAIN  43  41  93 N18       30.28S
ALBION         LGT RAIN  42  40  93 N13       30.30S
OMAHA EPPLEY   CLOUDY    50  46  86 N12       30.22R
OFFUTT AFB     CLOUDY    51  45  81 N9        30.20R
MILLARD        CLOUDY    51  47  83 N7        30.22S
LINCOLN        LGT RAIN  49  47  93 N16       30.24R FOG
NEBRASKA CITY  LGT RAIN  52  51  98 NE10      30.19S
BEATRICE       CLOUDY    51  50  95 NW9       30.22R
FALLS CITY     CLOUDY    54  48  80 N8        30.16R

...NORTHERN KANSAS...

CITY           SKY/WX    TMP DP  RH WIND       PRES   REMARKS
GOODLAND       CLOUDY    37  33  85 N15       30.37F WCI  28
HILL CITY      CLOUDY    42  37  82 N18       30.34F
NORTON         CLOUDY    39  36  87 NW16G23   30.33F WCI  30
PHILLIPSBURG   CLOUDY    43  37  81 NW14G23   30.32F
SMITH CENTER   CLOUDY    41  37  87 NW15      30.30F
BELOIT         CLOUDY    45  43  93 NW14      30.26F
HAYS           LGT RAIN  42  39  89 N15       30.31F
RUSSELL        LGT RAIN  43  42  97 N20       30.28F
CONCORDIA      CLOUDY    47  45  93 NW12      30.24S
SALINA         RAIN      48  47  96 NW16      30.25R FOG
TOPEKA         CLOUDY    56  49  77 W6        30.15F



USA.gov is the U.S. government's official web portal to all federal, state and local government web resources and services.